Regional Weather Roundup
Issued by NWS Cleveland, OH

Home | Current Version | Previous Version | Text Only | Print | Product List | Glossary Off
Versions: 1 2 3 4 5 6 7 8 9 10 11 12 13 14 15 16 17 18 19 20 21 22 23 24 25 26 27 28 29 30 31 32 33 34 35 36 37 38 39 40 41 42 43 44 45 46 47 48 49 50

000
ASUS41 KCLE 300102
RWRCLE
OHIO REGIONAL WEATHER ROUNDUP
NATIONAL WEATHER SERVICE CLEVELAND, OH
900 PM EDT SAT AUG 29 2015

NOTE: "FAIR" INDICATES FEW OR NO CLOUDS BELOW 12,000 FEET WITH NO
SIGNIFICANT WEATHER AND/OR OBSTRUCTIONS TO VISIBILITY.

OHZ001>008-015>018-024>027-034-035-043-044-300200-
   NORTHWEST OHIO

CITY           SKY/WX    TMP DP  RH WIND       PRES   REMARKS
DEFIANCE       CLOUDY    73  68  84 CALM      30.06R
FINDLAY        CLOUDY    76  69  79 N6        30.05R
TOLEDO EXPRESS CLOUDY    70  68  93 CALM      30.05R
TOLEDO EXEC    CLOUDY    71  68  90 CALM      30.06R
LIMA           CLOUDY    72  68  87 CALM      30.06R
$$

OHZ009>014-019>023-028>033-038-089-300200-
   NORTHEAST OHIO

CITY           SKY/WX    TMP DP  RH WIND       PRES   REMARKS
CLE-HOPKINS    CLOUDY    72  66  81 NE8       30.08S
CLE-LAKEFRONT  CLOUDY    71  66  84 E7        30.05R
CUY CO. ARPT   LGT RAIN  68  66  94 E9        30.09R
LORAIN-ELYRIA  CLOUDY    72  64  76 NE5       30.07R
ASHTABULA      LGT RAIN  66  64  93 E3        30.10R
AKRON-CANTON   CLOUDY    75  63  66 S5        30.08R
WOOSTER        MOCLDY    72  64  76 SW3       30.08R
MANSFIELD      MOCLDY    75  66  73 S7        30.09R
YOUNGSTOWN     CLOUDY    73  62  68 SE7       30.08R
$$

OHZ042-051>053-060>062-070>072-077>081-300200-
  SOUTHWEST OHIO

CITY           SKY/WX    TMP DP  RH WIND       PRES   REMARKS
CINC-COVINGTON MOCLDY    74  67  78 CALM      30.07
CINC-LUNKEN    MOCLDY    70  70 100 CALM      30.06R FOG
HAMILTON       MOCLDY    74  68  81 CALM      30.06R
DAYTON         LGT RAIN  75  63  66 CALM      30.08R
WRIGHT-PAT AFB NOT AVBL
DAYTON GENERAL CLOUDY    73  65  75 S8        30.06R
WILMINGTON     CLOUDY    70  67  90 CALM      30.08S
$$

OHZ036-037-039>041-045>050-054>059-063>069-073>076-082>088-300200-
  CENTRAL AND SOUTHEAST OHIO

CITY           SKY/WX    TMP DP  RH WIND       PRES   REMARKS
COLUMBUS       CLOUDY    70  63  78 E3        30.07R
OSU AIRPORT    CLOUDY    76  65  68 S6        30.07R
BOLTON FIELD   NOT AVBL
RICKENBACK AFB CLOUDY    75  66  74 CALM      30.06S
NEWARK         LGT RAIN  70  66  87 CALM      30.08R
MARION         CLOUDY    74  66  76 S6        30.07R
LANCASTER      CLOUDY    76  65  68 SW3       30.08R
ZANESVILLE     MOCLDY    77  61  57 SW5       30.08R
NEW PHILLY     MOCLDY    73  67  81 CALM      30.08R
$$



USA.gov is the U.S. government's official web portal to all federal, state and local government web resources and services.